Tracking 19638 objects as of 19-Apr-2019
HD Live streaming from Space Station
objects crossing your sky now

THORAD AGENA D DEB

Track THORAD AGENA D DEB now!
10-day predictions


NORAD ID: 17719
Int'l Code: 1970-025PH
Perigee: 729.9 km
Apogee: 872.3 km
Inclination: 99.1 °
Period: 100.7 minutes
Semi major axis: 7172 km
RCS: 0.0123 m2 (small)
Launch date: April 8, 1970
Source: United States (US)
Launch site: AIR FORCE WESTERN TEST RANGE (AFWTR)

Note: This is SATELLITE DEBRIS
aabbcc
Your satellite tracking list
Your tracking list is empty




NASA's NSSDC Master Catalog

Two Line Element Set (TLE):
1 17719U 70025PH  19108.47386913  .00001665  00000-0  63751-3 0  9992
2 17719  99.0880 291.1513 0099263  98.5461 315.6522 14.29336740744171
Source of the keplerian elements: AFSPC